STARLINK-32643, 62233

Orbit data source: Space-Track

STARLINK-32643, 62233 is a payload satellite owned by SpaceX/Seattle (US) in LEO that was launched on Thu, 05 Dec 2024 UTC via an FALCON 9 launch vehicle from the Air Force Western Test Range (AFWTR). Payload-class satellites include a variety of spacecraft equipped with specific instruments for various scientific and technological missions. These include communications satellites like Starlink; space stations such as the ISS; scientific satellites like the Hubble; Earth observation satellites from companies like Planet Labs, Umbra, and HawkEye 360; GPS; miniature CubeSats for education and research; and military/defense satellites.

Loading next visibility...
Identifier
62233, 2024-231R
Orbit
LEO
Country
Flag of USUS
Related business
Manufacturer
SpaceX/Seattle
Mission
Operational Commercial Communications
Bus & Motor
STARLINK V2M, Unknown motor
Mass
730 kg wet, ~700 kg dry
Launch date (UTC)
2024-12-05 (1 year ago)
Launch vehicle
FALCON 9
Launch site
Air Force Western Test Range (AFWTR)
Object type
Payload
Rocket body
Debris
Shape & HBR
Box + 2 Pan, 17.7 m
Radar Cross Section
33.884 m², Large (>1 m²)

Expand to show TLE details & history
Last TLE update: 11 hours ago

TLE from 11 hours ago
0 STARLINK-32643
1 62233U 24231R   26125.47515250  .00036119  00000-0  11689-2 0  9990
2 62233  53.1600 303.0013 0001637 108.0682 252.0498 15.31731160 80630
Epoch: 2026-05-05T11:24Z
TLE epoch observation values (Epoch: 2026-05-05T11:24:13.176Z)
Latitude
-0.00004°
Longitude
-91.40309°
Altitude
471.893 km
Speed
7.631 km/s
True Right ascension
20h 12m 00s
True Declination
0° 00' 00"
Sunlit
Object was in daylight at epoch
Visualization orbit readout
Latitude
Unknown
Longitude
Unknown
Altitude
Unknown
Speed
Unknown
Apparent Right ascension
Unknown
Apparent Declination
Unknown
Sunlit
N/A
Visualization observer readout
Local Sidereal Time
06:36:26
Azimuth
Unknown
Elevation
Unknown
Doppler factor
Unknown
Orbital elements
Apogee altitude
472.025 km
Perigee altitude
469.783 km
Semi-major axis
6,849.041 km
Eccentricity
0.00016
Inclination
53.16°
RAAN
303.0013°
Arg. of periapsis
108.0682°
True anomaly
252.03196°
Mean anomaly
252.0498°
Eccentric anomaly
252.04088°
Mean motion
3.82912 °/min
Orbital period
94.02 mins
BSTAR
0.0011689
Loading maneuver chart data...
Computing Atmospheric mass density...
Loading historical data...
Loading historical data...
Loading historical data...
Loading historical data...
Loading historical data...
Loading historical data...
Loading historical data...

Documentation

Showing up to 5 results
|